Weather History for Jacksonville, IL

Change the Weather History Date:

Friday, October 25, 2013

  Actual Average (KSPI) Record (KSPI)
Temperature  
Mean Temperature 39 °F 52 °F  
Max Temperature 54 °F 63 °F 86 °F (1940)
Min Temperature 25 °F 42 °F 20 °F (1887)
Degree Days  
Heating Degree Days 26 13  
Month to date heating degree days 243  
Since 1 July heating degree days 324  
Cooling Degree Days 0 0  
Month to date cooling degree days 19  
Year to date cooling degree days 1118  
Moisture  
Dew Point 27 °F    
Average Humidity 64    
Maximum Humidity 91    
Minimum Humidity 33    
Precipitation  
Precipitation 0.00 in 0.10 in 2.06 in (1932)
Month to date precipitation 2.53  
Year to date precipitation 31.08  
Snow  
Snow 0.00 in 0.00 in T in (1980)
Month to date snowfall 0.0  
Since 1 July snowfall 0.0  
Since 1 September snowfall 0.0  
Snow Depth -    
Sea Level Pressure  
Sea Level Pressure 30.37 in    
Wind  
Wind Speed 6 mph (SW)    
Max Wind Speed 14 mph    
Max Gust Speed 18 mph    
Visibility 10 miles    
Events      
T = Trace of Precipitation, MM = Missing Value Source: NWS Daily Summary

Daily Weather History Graph

Daily Weather History Graph

Search for Another Location

Airport:

Trip Planner

Search our weather history database for the weather conditions in past years. The results will help you decide how hot, cold, wet, or windy it might be!

Date:

Astronomy

Oct. 25, 2013 Rise Set
Actual Time 7:22 AM CDT 6:07 PM CDT
Civil Twilight 6:54 AM CDT 6:34 PM CDT
Nautical Twilight 6:22 AM CDT 7:06 PM CDT
Astronomical Twilight 5:51 AM CDT 7:37 PM CDT
Moon 11:27 PM CDT (10/25) 1:02 PM CDT (10/25)
Length of Visible Light 11h 40m
Length of Day
10h 45m
Waning Gibbous, 62% of the Moon is Illuminated
Oct 25
Waning Gibbous
Oct 26
Last Quarter
Nov 3
New
Nov 9
First Quarter
Nov 17
Full

Hourly Weather History & Observations

Time (CDT) Temp. Windchill Dew Point Humidity Pressure Visibility Wind Dir Wind Speed Gust Speed Precip Events Conditions
12:15 AM 28.6 °F 21.5 °F 24.3 °F 84% 30.40 in 10.0 mi SW 6.9 mph - N/A   Clear
12:35 AM 28.8 °F 22.6 °F 24.4 °F 84% 30.40 in 10.0 mi SW 5.8 mph - N/A   Clear
12:55 AM 28.4 °F 22.2 °F 24.4 °F 85% 30.41 in 10.0 mi SW 5.8 mph - N/A   Clear
1:15 AM 28.0 °F 20.8 °F 23.9 °F 84% 30.41 in 10.0 mi SW 6.9 mph - N/A   Clear
1:35 AM 28.4 °F 22.2 °F 24.3 °F 84% 30.41 in 10.0 mi SW 5.8 mph - N/A   Clear
1:55 AM 28.4 °F 23.3 °F 23.9 °F 83% 30.42 in 10.0 mi SW 4.6 mph - N/A   Clear
2:15 AM 27.5 °F 22.2 °F 23.7 °F 86% 30.42 in 10.0 mi SW 4.6 mph - N/A   Clear
2:35 AM 27.7 °F 22.4 °F 23.7 °F 85% 30.43 in 10.0 mi SW 4.6 mph - N/A   Clear
2:55 AM 27.7 °F 22.4 °F 23.9 °F 86% 30.43 in 10.0 mi WSW 4.6 mph - N/A   Clear
3:15 AM 27.9 °F 22.6 °F 23.9 °F 85% 30.43 in 10.0 mi WSW 4.6 mph - N/A   Clear
3:35 AM 27.1 °F 23.2 °F 23.9 °F 88% 30.43 in 10.0 mi SW 3.5 mph - N/A   Clear
3:55 AM 28.0 °F 24.2 °F 24.6 °F 87% 30.43 in 10.0 mi SW 3.5 mph - N/A   Clear
4:15 AM 27.3 °F - 24.3 °F 88% 30.43 in 10.0 mi Calm Calm - N/A   Clear
4:35 AM 26.1 °F 21.9 °F 22.5 °F 86% 30.43 in 10.0 mi SW 3.5 mph - N/A   Clear
4:55 AM 26.1 °F 19.4 °F 23.5 °F 90% 30.44 in 10.0 mi SW 5.8 mph - N/A   Clear
5:15 AM 26.4 °F 20.9 °F 23.5 °F 89% 30.45 in 10.0 mi SW 4.6 mph - N/A   Clear
5:35 AM 26.6 °F 22.6 °F 23.9 °F 90% 30.45 in 10.0 mi SSW 3.5 mph - N/A   Clear
5:55 AM 27.1 °F 20.7 °F 24.3 °F 89% 30.46 in 10.0 mi SW 5.8 mph - N/A   Clear
6:15 AM 27.5 °F 23.6 °F 24.6 °F 89% 30.46 in 10.0 mi SW 3.5 mph - N/A   Clear
6:35 AM 25.9 °F 21.7 °F 23.5 °F 91% 30.46 in 10.0 mi SW 3.5 mph - N/A   Clear
6:55 AM 26.6 °F 20.0 °F 23.9 °F 90% 30.47 in 10.0 mi SW 5.8 mph - N/A   Clear
7:15 AM 26.2 °F 20.7 °F 23.7 °F 90% 30.47 in 10.0 mi SW 4.6 mph - N/A   Clear
7:35 AM 26.1 °F 21.9 °F 23.7 °F 91% 30.47 in 10.0 mi SW 3.5 mph - N/A   Clear
7:55 AM 27.3 °F 23.4 °F 24.8 °F 90% 30.47 in 10.0 mi SSW 3.5 mph - N/A   Clear
8:15 AM 29.1 °F 25.4 °F 26.4 °F 90% 30.47 in 10.0 mi SW 3.5 mph - N/A   Clear
8:35 AM 31.8 °F 26.2 °F 28.2 °F 87% 30.47 in 10.0 mi SSW 5.8 mph - N/A   Clear
8:55 AM 33.8 °F 28.6 °F 29.5 °F 84% 30.48 in 10.0 mi SSW 5.8 mph - N/A   Clear
9:15 AM 36.1 °F 30.6 °F 30.7 °F 81% 30.48 in 10.0 mi SW 6.9 mph - N/A   Clear
9:35 AM 37.4 °F 32.1 °F 31.5 °F 79% 30.48 in 10.0 mi SW 6.9 mph - N/A   Clear
9:55 AM 39.6 °F 34.7 °F 32.2 °F 75% 30.48 in 10.0 mi SW 6.9 mph - N/A   Clear
10:15 AM 41.0 °F 37.1 °F 32.0 °F 70% 30.48 in 10.0 mi SW 5.8 mph - N/A   Clear
10:35 AM 42.6 °F 37.8 °F 32.2 °F 67% 30.48 in 10.0 mi WSW 8.1 mph - N/A   Clear
10:55 AM 44.4 °F 40.0 °F 32.0 °F 62% 30.47 in 10.0 mi SW 8.1 mph - N/A   Clear
11:15 AM 46.6 °F - 31.8 °F 56% 30.47 in 10.0 mi SSW 8.1 mph - N/A   Clear
11:35 AM 48.2 °F - 31.1 °F 52% 30.46 in 10.0 mi WSW 5.8 mph - N/A   Clear
11:55 AM 49.5 °F - 30.2 °F 48% 30.46 in 10.0 mi WSW 6.9 mph - N/A   Clear
12:15 PM 50.2 °F - 30.4 °F 47% 30.45 in 10.0 mi West 6.9 mph - N/A   Clear
12:35 PM 51.4 °F - 29.3 °F 43% 30.44 in 10.0 mi SW 8.1 mph - N/A   Clear
12:55 PM 51.8 °F - 26.8 °F 38% 30.43 in 10.0 mi WSW 5.8 mph - N/A   Clear
1:15 PM 52.0 °F - 28.0 °F 40% 30.42 in 10.0 mi WSW 8.1 mph - N/A   Scattered Clouds
1:35 PM 52.3 °F - 28.2 °F 39% 30.40 in 10.0 mi SW 12.7 mph 18.4 mph N/A   Clear
1:55 PM 52.9 °F - 27.3 °F 37% 30.39 in 10.0 mi WSW 9.2 mph - N/A   Clear
2:15 PM 53.4 °F - 27.3 °F 37% 30.38 in 10.0 mi SW 9.2 mph - N/A   Clear
2:35 PM 53.6 °F - 26.1 °F 35% 30.37 in 10.0 mi SW 13.8 mph - N/A   Clear
2:55 PM 53.8 °F - 25.5 °F 34% 30.36 in 10.0 mi WSW 9.2 mph 16.1 mph N/A   Clear
3:15 PM 53.8 °F - 25.5 °F 34% 30.35 in 10.0 mi SSW 11.5 mph - N/A   Clear
3:35 PM 53.6 °F - 25.2 °F 33% 30.34 in 10.0 mi WSW 9.2 mph - N/A   Clear
3:55 PM 53.8 °F - 25.2 °F 33% 30.33 in 10.0 mi SW 11.5 mph 17.3 mph N/A   Clear
4:15 PM 53.6 °F - 25.2 °F 33% 30.32 in 10.0 mi SW 11.5 mph - N/A   Clear
4:35 PM 53.6 °F - 26.4 °F 35% 30.32 in 10.0 mi SW 12.7 mph - N/A   Clear
4:55 PM 52.9 °F - 25.7 °F 35% 30.31 in 10.0 mi SSW 9.2 mph - N/A   Clear
5:15 PM 52.3 °F - 25.7 °F 36% 30.30 in 10.0 mi SW 8.1 mph 16.1 mph N/A   Clear
5:35 PM 51.6 °F - 25.2 °F 36% 30.29 in 10.0 mi SW 10.4 mph - N/A   Clear
5:55 PM 49.8 °F - 26.1 °F 40% 30.29 in 10.0 mi SSW 8.1 mph - N/A   Clear
6:15 PM 47.3 °F - 26.4 °F 44% 30.28 in 10.0 mi SSW 6.9 mph - N/A   Clear
6:35 PM 46.2 °F 44.1 °F 26.2 °F 46% 30.28 in 10.0 mi South 4.6 mph - N/A   Clear
6:55 PM 44.6 °F 41.4 °F 26.6 °F 49% 30.28 in 10.0 mi South 5.8 mph - N/A   Clear
7:15 PM 44.6 °F 42.2 °F 26.6 °F 49% 30.27 in 10.0 mi South 4.6 mph - N/A   Clear
7:35 PM 43.7 °F 39.7 °F 27.5 °F 53% 30.26 in 10.0 mi South 6.9 mph - N/A   Clear
7:55 PM 43.2 °F 39.7 °F 27.5 °F 54% 30.26 in 10.0 mi South 5.8 mph - N/A   Clear
8:15 PM 43.2 °F 38.4 °F 27.5 °F 54% 30.25 in 10.0 mi South 8.1 mph - N/A   Clear
8:35 PM 43.0 °F 38.8 °F 27.5 °F 54% 30.24 in 10.0 mi South 6.9 mph - N/A   Clear
8:55 PM 42.4 °F 37.5 °F 27.5 °F 56% 30.24 in 10.0 mi South 8.1 mph - N/A   Clear
9:15 PM 42.1 °F 37.1 °F 27.3 °F 56% 30.23 in 10.0 mi South 8.1 mph - N/A   Clear
9:35 PM 41.2 °F 36.0 °F 27.5 °F 58% 30.22 in 10.0 mi South 8.1 mph - N/A   Clear
9:55 PM 41.4 °F 34.7 °F 27.5 °F 58% 30.21 in 10.0 mi South 11.5 mph 16.1 mph N/A   Clear
10:15 PM 41.4 °F 35.7 °F 27.5 °F 58% 30.21 in 10.0 mi South 9.2 mph - N/A   Clear
10:35 PM 41.2 °F 35.0 °F 27.9 °F 59% 30.21 in 10.0 mi South 10.4 mph - N/A   Clear
10:55 PM 40.6 °F 36.0 °F 27.9 °F 60% 30.21 in 10.0 mi South 6.9 mph - N/A   Clear
11:15 PM 40.5 °F 37.3 °F 28.0 °F 61% 30.20 in 10.0 mi South 4.6 mph - N/A   Clear
11:35 PM 40.5 °F 35.1 °F 28.0 °F 61% 30.19 in 10.0 mi South 8.1 mph - N/A   Clear
11:55 PM 40.1 °F 34.7 °F 28.0 °F 62% 30.19 in 10.0 mi South 8.1 mph - N/A   Clear